This is the latest recevied weather packets stored in our database for station/object EA2MKR. If no packets are shown the sender has not sent any weather packets the latest 10 day(s).
| Time | Temp. | Humidity | Pressure | Rain* | Wind** | Luminosity | Snow |
|---|---|---|---|---|---|---|---|
| 1788113479 | 18.89° C | 81% | 955.8 hPa | 0 mm | - | - | - |
| 1788113180 | 18.89° C | 81% | 955.7 hPa | 0 mm | - | - | - |
| 1788112886 | 19.44° C | 80% | 955.8 hPa | 0 mm | - | - | - |
| 1788112579 | 19.44° C | 80% | 955.8 hPa | 0 mm | - | - | - |
| 1788112279 | 19.44° C | 81% | 955.6 hPa | 0 mm | - | - | - |
| 1788111979 | 19.44° C | 81% | 955.6 hPa | 0 mm | - | - | - |
| 1788111679 | 19.44° C | 80% | 955.6 hPa | 0 mm | - | - | - |
| 1788111378 | 19.44° C | 79% | 955.7 hPa | 0 mm | - | - | - |
| 1788111079 | 20° C | 79% | 955.6 hPa | 0 mm | - | - | - |
| 1788110778 | 20° C | 79% | 955.5 hPa | 0 mm | - | - | - |
| 1788110478 | 20° C | 78% | 955.4 hPa | 0 mm | - | - | - |
| 1788110178 | 20.56° C | 78% | 955.3 hPa | 0 mm | - | - | - |
| 1788109878 | 20.56° C | 79% | 955.3 hPa | 0 mm | - | - | - |
| 1788109579 | 20° C | 80% | 955.4 hPa | 0 mm | - | - | - |
| 1788109278 | 20° C | 80% | 955.3 hPa | 0 mm | - | - | - |
| 1788108978 | 20.56° C | 80% | 955.3 hPa | 0 mm | - | - | - |
| 1788108680 | 20.56° C | 80% | 955.2 hPa | 0 mm | - | - | - |
| 1788108502 | 20.56° C | 79% | 955.2 hPa | 0 mm | - | - | - |
| 1788108202 | 21.11° C | 77% | 955.1 hPa | 0 mm | - | - | - |
| 1788107779 | 21.67° C | 76% | 954.9 hPa | 0 mm | - | - | - |
| 1788107477 | 22.22° C | 74% | 954.9 hPa | 0 mm | - | - | - |
| 1788107179 | 22.78° C | 73% | 954.8 hPa | 0 mm | - | - | - |
| 1788106877 | 22.78° C | 72% | 954.8 hPa | 0 mm | - | - | - |
| 1788106577 | 22.78° C | 71% | 954.6 hPa | 0 mm | - | - | - |
| 1788106277 | 23.33° C | 70% | 954.6 hPa | 0 mm | - | - | - |
* Rain latest hour (hover to see other rain measurements)
** Current wind speed in m/s (hover to see current wind gust speed)